N8VIM Weather Reports


time (UTC)temp
C
wind
direction
speed
KPH
gust
KPH
rain 1hr
cm
rain 24hr
cm
rain mn
cm
humidity
%
barometer
mb
20260504223011 21 285 8.0 22.5 319.79 0.00 0.00 29 1006.6
20260504222510 21 302 8.0 16.1 319.79 0.00 0.00 31 1006.7
20260504222011 21 243 9.7 17.7 319.79 0.00 0.00 30 1006.7
20260504221510 21 252 6.4 17.7 319.79 0.00 0.00 30 1006.7
20260504221010 21 264 8.0 17.7 319.79 0.00 0.00 28 1006.7
20260504220510 21 297 11.3 22.5 319.79 0.00 0.00 30 1006.8
20260504220011 21 298 12.9 24.1 319.79 0.00 0.00 29 1006.8
20260504215510 21 297 8.0 20.9 319.79 0.00 0.00 29 1006.7
20260504215013 21 259 8.0 16.1 319.79 0.00 0.00 30 1006.8
20260504214511 21 231 8.0 16.1 319.79 0.00 0.00 29 1006.7
20260504214010 21 114 8.0 14.5 319.79 0.00 0.00 29 1006.7
20260504213011 21 250 4.8 14.5 319.79 0.00 0.00 29 1006.7
20260504212510 22 271 6.4 17.7 319.79 0.00 0.00 28 1006.8
20260504212010 21 221 8.0 16.1 319.79 0.00 0.00 29 1006.8
20260504211511 21 273 8.0 27.4 319.79 0.00 0.00 28 1006.8
20260504211009 22 235 12.9 22.5 319.79 0.00 0.00 26 1006.8
20260504210511 21 232 3.2 22.5 319.79 0.00 0.00 29 1006.8
20260504210011 21 274 11.3 27.4 319.79 0.00 0.00 28 1006.7
20260504205509 21 287 17.7 27.4 319.79 0.00 0.00 27 1006.7
20260504205009 21 285 6.4 27.4 319.79 0.00 0.00 29 1006.8
20260504204511 21 252 8.0 17.7 319.79 0.00 0.00 28 1006.7
20260504204009 21 290 4.8 29.0 319.79 0.00 0.00 30 1006.7
20260504203012 21 266 11.3 17.7 319.79 0.00 0.00 26 1006.7
20260504202509 21 284 8.0 22.5 319.79 0.00 0.00 28 1006.7
20260504202009 20 284 11.3 25.7 319.79 0.00 0.00 29 1006.7
20260504201511 21 273 6.4 25.7 319.79 0.00 0.00 29 1006.8
20260504201009 21 273 6.4 30.6 319.79 0.00 0.00 30 1006.8
20260504200012 21 212 9.7 25.7 319.79 0.00 0.00 29 1006.7
20260504195009 22 274 17.7 22.5 319.79 0.00 0.00 26 1006.8
20260504194511 22 277 11.3 25.7 319.79 0.00 0.00 25 1006.8
20260504193510 21 264 6.4 22.5 319.79 0.00 0.00 28 1006.8
20260504193010 21 298 11.3 20.9 319.79 0.00 0.00 26 1006.8
20260504192509 21 276 9.7 25.7 319.79 0.00 0.00 27 1006.8
20260504192009 21 255 8.0 20.9 319.79 0.00 0.00 27 1006.9
20260504191510 22 273 9.7 25.7 319.79 0.00 0.00 25 1006.8
20260504190509 21 288 14.5 22.5 319.79 0.00 0.00 24 1006.8
20260504190012 21 264 12.9 24.1 319.79 0.00 0.00 26 1006.9
20260504185509 21 270 12.9 25.7 319.79 0.00 0.00 28 1007.0
20260504185009 21 177 11.3 29.0 319.79 0.00 0.00 27 1007.1
20260504184510 21 274 14.5 22.5 319.79 0.00 0.00 27 1007.1
20260504184011 21 293 12.9 27.4 319.79 0.00 0.00 28 1007.1
20260504183509 21 273 14.5 30.6 319.79 0.00 0.00 24 1007.3
20260504183010 21 274 14.5 24.1 319.79 0.00 0.00 26 1007.3
20260504182509 21 278 6.4 20.9 319.79 0.00 0.00 26 1007.3
20260504182009 21 294 11.3 38.6 319.79 0.00 0.00 27 1007.4
20260504181512 21 290 16.1 24.1 319.79 0.00 0.00 26 1007.4
20260504180010 21 222 8.0 37.0 319.79 0.00 0.00 30 1007.3
20260504174510 20 278 14.5 37.0 319.79 0.00 0.00 27 1007.4
20260504174009 20 274 17.7 35.4 319.79 0.00 0.00 29 1007.4
20260504173509 20 195 12.9 25.7 319.79 0.00 0.00 28 1007.5
20260504173010 20 270 8.0 22.5 319.79 0.00 0.00 30 1007.6
20260504172509 20 174 11.3 25.7 319.79 0.00 0.00 27 1007.6
20260504171510 20 256 17.7 32.2 319.79 0.00 0.00 27 1007.5
20260504171009 20 264 11.3 33.8 319.79 0.00 0.00 29 1007.6
20260504170509 20 269 16.1 33.8 319.79 0.00 0.00 26 1007.9
20260504151009 17 287 11.3 35.4 319.79 0.00 0.00 36 1008.9
20260504150509 17 259 8.0 22.5 319.79 0.00 0.00 38 1009.0
20260504130509 13 302 14.5 22.5 319.79 0.00 0.00 44 1010.1
20260504110509 7 194 6.4 12.9 319.79 0.00 0.00 70 1010.5
20260504100509 6 211 3.2 3.2 319.79 0.00 0.00 78 1010.5
20260504081510 5 198 0.0 1.6 319.79 0.00 0.00 75 1010.6
20260504050010 1 285 1.6 3.2 319.79 0.00 0.00 92 1010.6
20260504044511 1 0 0.0 0.0 319.79 0.00 0.00 90 1010.6
20260504044008 1 257 0.0 1.6 319.79 0.00 0.00 90 1010.6
20260504043009 1 277 3.2 8.0 319.79 0.00 0.00 89 1010.6
20260504042008 1 284 4.8 4.8 319.79 0.00 0.00 88 1010.6
20260504041511 1 267 1.6 4.8 319.79 0.00 0.00 88 1010.6
20260504040014 1 304 3.2 4.8 319.79 0.00 0.00 88 1010.4
20260504034513 1 288 3.2 4.8 319.79 0.00 0.00 89 1010.4
20260504033508 1 300 3.2 6.4 319.79 0.00 0.00 88 1010.3
20260504033014 1 295 4.8 4.8 319.79 0.00 0.00 88 1010.4
20260504032508 1 263 1.6 3.2 319.79 0.00 0.00 89 1010.4
20260504032008 1 266 3.2 4.8 319.79 0.00 0.00 87 1010.3
20260504031514 2 276 3.2 4.8 319.79 0.00 0.00 87 1010.2
20260504030508 2 252 1.6 3.2 319.79 0.00 0.00 87 1010.2
20260504030010 2 276 3.2 4.8 319.79 0.00 0.00 86 1010.2
20260504025508 2 285 3.2 4.8 319.79 0.00 0.00 85 1010.2
20260504025008 2 276 3.2 4.8 319.79 0.00 0.00 84 1010.2
20260504024508 2 274 3.2 4.8 319.79 0.00 0.00 84 1010.2
20260504024008 2 277 3.2 4.8 319.79 0.00 0.00 83 1010.2
20260504023508 3 278 3.2 4.8 319.79 0.00 0.00 81 1010.2
20260504023008 3 274 3.2 4.8 319.79 0.00 0.00 81 1010.2
20260504022508 3 294 3.2 4.8 319.79 0.00 0.00 79 1010.1
20260504022008 3 280 3.2 4.8 319.79 0.00 0.00 79 1010.1
20260504021508 3 287 3.2 4.8 319.79 0.00 0.00 79 1010.2
20260504021008 3 283 4.8 4.8 319.79 0.00 0.00 78 1010.1
20260504020508 3 269 3.2 4.8 319.79 0.00 0.00 77 1010.1
20260504020009 4 276 0.0 3.2 319.79 0.00 0.00 76 1010.2
20260504015508 4 276 3.2 3.2 319.79 0.00 0.00 75 1010.0
20260504015008 4 290 3.2 3.2 319.79 0.00 0.00 72 1010.0
20260504014508 4 301 3.2 4.8 319.79 0.00 0.00 72 1010.0
20260504014008 5 276 3.2 4.8 319.79 0.00 0.00 71 1010.0
20260504013508 5 283 3.2 4.8 319.79 0.00 0.00 70 1010.0
20260504013010 5 276 3.2 3.2 319.79 0.00 0.00 69 1009.9
20260504012508 5 0 0.0 0.0 319.79 0.00 0.00 65 1009.9
20260504012008 5 0 0.0 0.0 319.79 0.00 0.00 64 1009.8
20260504011508 5 0 0.0 0.0 319.79 0.00 0.00 65 1009.7
20260504011008 6 0 0.0 0.0 319.79 0.00 0.00 62 1009.7
20260504010508 6 0 0.0 0.0 319.79 0.00 0.00 63 1009.6
20260504010009 6 0 0.0 0.0 319.79 0.00 0.00 61 1009.6
20260504005508 6 0 0.0 0.0 319.79 0.00 0.00 60 1009.6
20260504005008 6 0 0.0 0.0 319.79 0.00 0.00 60 1009.4
20260504004508 7 0 0.0 0.0 319.79 0.00 0.00 59 1009.4
20260504003508 7 0 0.0 0.0 319.79 0.00 0.00 56 1009.2
20260504003008 7 0 0.0 0.0 319.79 0.00 0.00 55 1009.2
20260504002508 7 0 0.0 0.0 319.79 0.00 0.00 54 1009.2
20260504002008 7 0 0.0 0.0 319.79 0.00 0.00 53 1009.1
20260504001508 8 0 0.0 0.0 319.79 0.00 0.00 54 1009.0
20260504001008 8 0 0.0 0.0 319.79 0.00 0.00 53 1008.9
20260504000508 8 0 0.0 0.0 319.79 0.00 0.00 51 1009.0
20260504000008 9 0 0.0 0.0 319.79 0.00 0.00 50 1008.9
20260503235508 9 0 0.0 0.0 319.79 0.00 0.00 49 1008.9
20260503235008 9 0 0.0 0.0 319.79 0.00 0.00 49 1008.9
20260503234508 10 1 0.0 3.2 319.79 0.00 0.00 48 1008.8
20260503234008 10 280 0.0 9.7 319.79 0.00 0.00 46 1008.8
20260503233507 10 262 3.2 11.3 319.79 0.00 0.00 44 1008.8
20260503233008 10 278 1.6 8.0 319.79 0.00 0.00 45 1008.7
20260503232008 10 304 4.8 11.3 319.79 0.00 0.00 43 1008.6
20260503231508 10 284 4.8 9.7 319.79 0.00 0.00 42 1008.6
20260503231007 10 287 0.0 14.5 319.79 0.00 0.00 43 1008.5
20260503230508 10 281 6.4 16.1 319.79 0.00 0.00 41 1008.5
20260503230008 10 267 9.7 20.9 319.79 0.00 0.00 42 1008.4
20260503225008 10 271 9.7 14.5 319.79 0.00 0.00 41 1008.4
20260503224508 10 280 4.8 22.5 319.79 0.00 0.00 40 1008.4